Back to catalog

STARLINK-37522

AliveCommunicationsVLEO
NORAD 69446·PAYLOAD·🇺🇸 United States

Launched Jun 8, 2026 from Cape Canaveral Space Force Station

Loading…

Next Passes (next 24 hours)

TLE

FreshSource: CelesTrak SupGP

Epoch: Sep 15, 2026, 03:21 UTC

1 69446C 26127D   26258.14006944 -.00047185  00000+0 -13940-2 0  2581
2 69446  53.1570 190.7647 0001315  82.2750 127.5211 15.34415288    11

Track STARLINK-37522 in real time with AllMySat

Download on the App Store